TimeEST,TemperatureF,Dew PointF,Humidity,Sea Level PressureIn,VisibilityMPH,Wind Direction,Wind SpeedMPH,Gust SpeedMPH,PrecipitationIn,Events,Conditions,WindDirDegrees,DateUTC
12:56 AM,42.1,39.0,89,30.12,8.0,North,5.8,-,N/A,,Mostly Cloudy,360,2012-11-04 04:56:00
1:56 AM,39.9,37.0,89,30.12,8.0,North,6.9,-,N/A,,Scattered Clouds,360,2012-11-04 05:56:00
1:56 AM,39.0,36.0,89,30.12,8.0,North,5.8,-,N/A,,Clear,360,2012-11-04 06:56:00
2:56 AM,37.9,35.1,89,30.13,8.0,North,6.9,-,N/A,,Clear,350,2012-11-04 07:56:00
3:56 AM,37.0,35.1,93,30.13,10.0,North,6.9,-,N/A,,Clear,360,2012-11-04 08:56:00
4:56 AM,37.9,35.1,89,30.14,10.0,North,9.2,-,N/A,,Partly Cloudy,360,2012-11-04 09:56:00
5:56 AM,37.0,35.1,93,30.15,10.0,North,8.1,-,N/A,,Mostly Cloudy,10,2012-11-04 10:56:00
6:56 AM,36.0,34.0,93,30.16,9.0,North,3.5,-,N/A,,Mostly Cloudy,360,2012-11-04 11:56:00
7:56 AM,36.0,34.0,93,30.18,7.0,NNW,4.6,-,N/A,,Mostly Cloudy,340,2012-11-04 12:56:00
8:56 AM,39.0,35.1,86,30.19,10.0,North,6.9,-,N/A,,Mostly Cloudy,10,2012-11-04 13:56:00
9:56 AM,43.0,36.0,76,30.18,10.0,NNE,4.6,-,N/A,,Mostly Cloudy,20,2012-11-04 14:56:00
10:56 AM,46.0,37.0,71,30.18,10.0,Variable,3.5,-,N/A,,Mostly Cloudy,0,2012-11-04 15:56:00
11:56 AM,48.9,37.0,64,30.19,10.0,NNW,5.8,-,N/A,,Mostly Cloudy,330,2012-11-04 16:56:00
12:56 PM,51.1,35.1,54,30.17,10.0,NNW,9.2,-,N/A,,Mostly Cloudy,330,2012-11-04 17:56:00
1:56 PM,52.0,34.0,50,30.15,10.0,Calm,Calm,-,N/A,,Scattered Clouds,0,2012-11-04 18:56:00
2:56 PM,53.1,34.0,48,30.13,10.0,NW,8.1,-,N/A,,Scattered Clouds,320,2012-11-04 19:56:00
3:56 PM,53.1,33.1,47,30.13,10.0,North,6.9,-,N/A,,Partly Cloudy,10,2012-11-04 20:56:00
4:56 PM,50.0,33.1,52,30.13,10.0,North,10.4,-,N/A,,Partly Cloudy,360,2012-11-04 21:56:00
5:56 PM,46.0,33.1,61,30.15,10.0,North,8.1,-,N/A,,Partly Cloudy,10,2012-11-04 22:56:00
6:56 PM,45.0,32.0,60,30.16,10.0,NNE,8.1,-,N/A,,Clear,20,2012-11-04 23:56:00
7:56 PM,43.0,30.9,62,30.17,10.0,NNE,6.9,-,N/A,,Clear,20,2012-11-05 00:56:00
8:56 PM,41.0,30.0,65,30.18,10.0,North,5.8,-,N/A,,Clear,10,2012-11-05 01:56:00
9:56 PM,39.9,30.0,68,30.18,10.0,North,3.5,-,N/A,,Clear,360,2012-11-05 02:56:00
10:56 PM,39.0,30.0,70,30.17,10.0,Calm,Calm,-,N/A,,Clear,0,2012-11-05 03:56:00